Skip Page Navigation
NASA JPL Caltech
NASA Logo - Jet Propulsion Laboratory + View the NASA Portal
+ Center for Near-Earth Object Studies
JPL Home Earth Solar System Stars & Galaxies Technology
JPL Solar System Dynamics
BODIES ORBITS EPHEMERIDES TOOLS PHYSICAL DATA DISCOVERY FAQ SITE MAP
IMPORTANT: The SSD Announcement email list is now available. Major changes are coming in the near future, including possible hostname and/or URL changes. To be notified of such changes, subscribe to this email list.

Please visit this page for more details.


JPL Small-Body Database Browser
Search: [ help ]  
379185 (2009 RP52)
Classification: Main-belt Asteroid          SPK-ID: 2379185
Ephemeris | Orbit Diagram | Orbital Elements | Mission Design | Physical Parameters | Discovery Circumstances | Close-Approach Data ]

[ show orbit diagram ]
Orbital Elements at Epoch 2459000.5 (2020-May-31.0) TDB
Reference: JPL 13 (heliocentric ecliptic J2000)
 Element Value Uncertainty (1-sigma)   Units 
e .003653887936343422 6.9935e-08  
a 2.620080651162776 3.0805e-08 au
q 2.610507170079246 1.8147e-07 au
i 14.38044235946866 8.4249e-06 deg
node 190.0908817026447 2.9559e-05 deg
peri 152.8342159255779 0.0011373 deg
M 223.5590132942904 0.0011352 deg
tp 2459587.600928860663
(2022-Jan-08.10092886)
0.0048846 TDB
period 1549.06776543411
4.24
2.732e-05
7.48e-08
d
yr
n .2323978382566845 4.0986e-09 deg/d
Q 2.629654132246307 3.0918e-08 au
  Orbit Determination Parameters
   # obs. used (total)      118  
   data-arc span      5796 days (15.87 yr)  
   first obs. used      2003-03-24  
   last obs. used      2019-02-04  
   planetary ephem.      DE431  
   SB-pert. ephem.      SB431-N16  
   condition code      0  
   norm. resid. RMS      .6413  
   source      ORB  
   producer      Otto Matic  
   solution date      2019-Jul-14 12:27:15  

Additional Information
 Earth MOID = 1.60963 au 
 Jupiter MOID = 2.3429 au 
 T_jup = 3.361 
[ show covariance matrix ]

Ephemeris | Orbit Diagram | Orbital Elements | Mission Design | Physical Parameters | Discovery Circumstances | Close-Approach Data ]

Physical Parameter Table
Parameter Symbol Value Units Sigma Reference Notes
absolute magnitude H 16.5   n/a MPO418927  

379185 (2009 RP52)          Discovered 2009-Sep-15 by Spacewatch at Kitt Peak
Reference: Last Updated: 2013-11-20

[ show close-approach data ]
Ephemeris | Orbit Diagram | Orbital Elements | Mission Design | Physical Parameters | Discovery Circumstances | Close-Approach Data ]
ABOUT SSD CREDITS/AWARDS PRIVACY/COPYRIGHT GLOSSARY LINKS
FirstGov 2020-Mar-28 09:35 UT
(server date/time)  
NASA Home Page
Site Manager:   Ryan S. Park
Webmaster  Alan B. Chamberlin